Weather Roundup
Issued by NWS

Home | Current Version | Previous Version | Graphics & Text | Print | Product List | Glossary Off
Versions: 1 2 3 4 5 6 7 8 9 10 11 12 13 14 15 16 17 18 19 20 21 22 23 24 25 26 27 28 29 30 31 32 33 34 35 36 37 38 39 40 41 42 43 44 45 46 47 48 49 50

000
NZUS93 KARX 251259
HRRWXR

CURRENT HOURLY OBSERVATIONS ACROSS
MUCH OF THE UPPER MISSISSIPPI VALLEY
NATIONAL WEATHER SERVICE LA CROSSE WI
800 AM CDT SAT OCT 25 2014


...SOUTHEAST MINNESOTA...


CITY           SKY/WX    TMP DP  RH WIND       PRES   REMARKS
ROCHESTER      PTCLDY    45  39  79 W8        30.02R
ROCHESTER/MAYO FAIR      50  37  61 W10       30.01R
WINONA         CLEAR     46  41  81 NW6       29.98R
AUSTIN         PTCLDY    48  39  71 NW7       30.03R
ALBERT LEA     CLEAR     46  39  76 W5        30.04R
DODGE CENTER   PTCLDY    50  39  66 W9        30.02R
PRESTON        CLEAR     46  39  79 NW9       30.01R
OWATONNA       PTCLDY    48  41  76 W5        30.03R
FARIBAULT      PTCLDY    50  39  66 W5        30.04R
$$

...ELSEWHERE IN MINNESOTA...


CITY           SKY/WX    TMP DP  RH WIND       PRES   REMARKS
MINNEAPOLIS    PTCLDY    51  34  52 W10       30.00R
INTNL FALLS    CLEAR     40  31  70 W12       29.86R WCI  33
DULUTH         CLEAR     47  32  56 W16       29.88R
RED WING       CLEAR     39  37  93 W3        29.98R
REDWOOD FALLS  MOCLDY    48  38  68 W8        30.08R
MANKATO        MOCLDY    50  36  57 W10       30.04R
WORTHINGTON    CLEAR     43  34  70 NW7       30.10S
FAIRMONT       PTCLDY    48   5  17 NW7       30.07R
$$

...SOUTHWEST WISCONSIN...


CITY           SKY/WX    TMP DP  RH WIND       PRES   REMARKS
LA CROSSE      FOG       44  43  96 SE3       29.96R VSB 1/4
PRAIRIE DU CHI CLEAR     46  45  96 CALM      29.98R FOG
BOSCOBEL       FOG       49  48  97 SW6       29.97R VSB 1/4
LONE ROCK      FOG       55  51  86 W7        29.95R VSB 1/2
PLATTEVILLE    CLEAR     52  50  93 CALM      29.98R
FORT MC COY    CLEAR     50  40  69 W7        29.94R
VIROQUA        FAIR      49  47  93 W6        29.95S
WIS DELLS      CLEAR     51  45  81 W5        29.92S
$$

...ELSEWHERE IN WISCONSIN...


CITY           SKY/WX    TMP DP  RH WIND       PRES   REMARKS
MILWAUKEE      PTCLDY    57  51  80 W10       29.90R
MADISON        PTCLDY    54  51  90 W5        29.92R FOG
GREEN BAY      CLEAR     52  49  89 W7        29.84R FOG
EAU CLAIRE     CLEAR     43  37  79 W6        29.95R
BLACK RVR FLS  FAIR      38  38 100 CALM      29.93R
MEDFORD        CLEAR     45  39  81 W9        29.89R
WAUSAU         CLEAR     48  42  80 W10       29.86R
WIS RAPIDS     CLEAR     49  42  77 W8        29.91R
MARSHFIELD     CLEAR     48  40  73 NW10      29.90R
RICE LAKE      CLEAR     44  35  70 W5        29.94R
$$

...NORTHEAST IOWA...


CITY           SKY/WX    TMP DP  RH WIND       PRES   REMARKS
DECORAH        CLEAR     48  43  81 CALM      29.99R
MASON CITY     CLEAR     47  40  76 NW8       30.06R
CHARLES CITY   CLEAR     41  41 100 NW6       30.03R
OELWEIN        CLEAR     45  43  93 W8        30.02R
$$

...ELSEWHERE IN IOWA...


CITY           SKY/WX    TMP DP  RH WIND       PRES   REMARKS
DES MOINES     CLEAR     54  42  64 N6        30.06R
IOWA CITY      CLEAR     52  49  89 N7        30.02R
FORT DODGE     CLEAR     46  37  71 W3        30.08R
$$

...NORTHERN ILLINOIS...


CITY           SKY/WX    TMP DP  RH WIND       PRES   REMARKS
CHICAGO-OHARE  PTCLDY    55  53  93 W6        29.91R FOG
CHICAGO-MIDWAY PTCLDY    56  54  93 SW6       29.91S FOG
MOLINE         FOG       51  51 100 W5        29.99R VSB 1/4
ROCKFORD       FOG       53  52  96 W3        29.96R VSB 1/8
PEORIA         FOG       56  53  90 SW6       29.99R VSB 1/8
$$

NOTE: "FAIR" INDICATES FEW OR NO CLOUDS BELOW 12,000 FEET WITH NO
SIGNIFICANT WEATHER AND/OR OBSTRUCTIONS TO VISIBILITY. WIND
SPEEDS ARE IN MILES-PER-HOUR.



USA.gov is the U.S. government's official web portal to all federal, state and local government web resources and services.